LA5NNA Weather Reports


time (UTC)temp
C
wind
direction
speed
KPH
gust
KPH
rain 1hr
cm
rain 24hr
cm
rain mn
cm
humidity
%
barometer
mb
20260507135506 12 154 9.7 22.5 0.00 0.00 0.00 57 1016.7
20260507135007 12 170 12.9 20.9 0.00 0.00 0.00 56 1016.7
20260507134506 12 159 11.3 20.9 0.00 0.00 0.00 56 1016.7
20260507134006 12 158 12.9 20.9 0.00 0.00 0.00 56 1016.6
20260507133506 12 161 11.3 24.1 0.00 0.00 0.00 56 1016.7
20260507133011 12 173 11.3 25.7 0.00 0.00 0.00 56 1016.8
20260507132507 12 160 12.9 25.7 0.00 0.00 0.00 56 1016.8
20260507132006 12 171 11.3 20.9 0.00 0.00 0.00 56 1016.7
20260507131507 12 162 11.3 22.5 0.00 0.00 0.00 56 1016.7
20260507131007 12 171 11.3 20.9 0.00 0.00 0.00 56 1016.7
20260507130010 12 112 11.3 19.3 0.00 0.00 0.00 56 1016.7
20260507125506 12 128 8.0 24.1 0.00 0.00 0.00 56 1016.7
20260507125007 12 133 11.3 24.1 0.00 0.00 0.00 55 1016.7
20260507124507 12 170 11.3 22.5 0.00 0.00 0.00 55 1016.7
20260507124007 12 160 12.9 20.9 0.00 0.00 0.00 55 1016.8
20260507123506 12 101 8.0 19.3 0.00 0.00 0.00 56 1016.7
20260507123010 12 123 9.7 19.3 0.00 0.00 0.00 56 1016.7
20260507122007 12 146 11.3 19.3 0.00 0.00 0.00 56 1016.7
20260507121506 12 131 11.3 19.3 0.00 0.00 0.00 55 1016.7
20260507120506 12 106 11.3 19.3 0.00 0.00 0.00 56 1016.6
20260507120010 12 96 9.7 19.3 0.00 0.00 0.00 56 1016.5
20260507115507 12 99 9.7 19.3 0.00 0.00 0.00 55 1016.5
20260507115006 12 140 8.0 16.1 0.00 0.00 0.00 56 1016.6
20260507113506 12 139 8.0 22.5 0.00 0.00 0.00 55 1016.6
20260507113010 12 131 14.5 22.5 0.00 0.00 0.00 55 1016.6
20260507112506 12 124 11.3 19.3 0.00 0.00 0.00 55 1016.5
20260507112007 12 121 9.7 20.9 0.00 0.00 0.00 55 1016.5
20260507111507 12 150 16.1 22.5 0.00 0.00 0.00 55 1016.5
20260507111007 12 141 9.7 19.3 0.00 0.00 0.00 55 1016.4
20260507110507 12 156 11.3 20.9 0.00 0.00 0.00 55 1016.5
20260507110010 12 149 14.5 25.7 0.00 0.00 0.00 55 1016.5
20260507105507 11 116 11.3 24.1 0.00 0.00 0.00 55 1016.6
20260507104006 11 135 14.5 24.1 0.00 0.00 0.00 54 1016.3
20260507103506 11 141 11.3 24.1 0.00 0.00 0.00 55 1016.4
20260507103011 11 161 8.0 14.5 0.00 0.00 0.00 55 1016.3
20260507102506 11 138 12.9 24.1 0.00 0.00 0.00 55 1016.3
20260507102007 11 104 9.7 19.3 0.00 0.00 0.00 55 1016.3
20260507101507 11 100 4.8 16.1 0.00 0.00 0.00 54 1016.4
20260507101007 11 129 8.0 16.1 0.00 0.00 0.00 54 1016.4
20260507100506 11 143 9.7 16.1 0.00 0.00 0.00 54 1016.3
20260507100010 11 138 11.3 19.3 0.00 0.00 0.00 54 1016.3
20260507095507 11 137 6.4 16.1 0.00 0.00 0.00 54 1016.1
20260507095006 11 144 11.3 19.3 0.00 0.00 0.00 54 1016.2
20260507094506 11 154 9.7 20.9 0.00 0.00 0.00 54 1016.1
20260507094007 11 146 11.3 24.1 0.00 0.00 0.00 53 1016.1
20260507092506 11 110 11.3 19.3 0.00 0.00 0.00 52 1016.0
20260507091506 11 112 8.0 16.1 0.00 0.00 0.00 52 1016.0
20260507091007 10 147 8.0 19.3 0.00 0.00 0.00 51 1016.0
20260507090507 10 171 9.7 14.5 0.00 0.00 0.00 51 1015.9
20260507090010 10 156 11.3 19.3 0.00 0.00 0.00 52 1016.0
20260507085506 10 119 6.4 19.3 0.00 0.00 0.00 52 1015.9
20260507084006 10 77 9.7 14.5 0.00 0.00 0.00 52 1016.2
20260507083506 10 90 6.4 14.5 0.00 0.00 0.00 51 1016.1
20260507081006 9 122 6.4 12.9 0.00 0.00 0.00 51 1015.8
20260507080506 9 87 8.0 12.9 0.00 0.00 0.00 50 1015.9
20260507080010 9 83 8.0 14.5 0.00 0.00 0.00 50 1015.7
20260507075507 8 106 8.0 19.3 0.00 0.00 0.00 51 1015.7
20260507074509 8 95 6.4 14.5 0.00 0.00 0.00 53 1015.6
20260507074008 8 86 8.0 14.5 0.00 0.00 0.00 53 1015.7
20260507073012 7 110 6.4 16.1 0.00 0.00 0.00 54 1015.6
20260507072509 7 105 8.0 14.5 0.00 0.00 0.00 55 1015.6
20260507072009 7 118 8.0 12.9 0.00 0.00 0.00 56 1015.6
20260507071509 7 134 6.4 11.3 0.00 0.00 0.00 57 1015.4
20260507071009 6 158 4.8 9.7 0.00 0.00 0.00 58 1015.4
20260507070509 6 153 3.2 8.0 0.00 0.00 0.00 58 1015.4
20260507070013 6 76 4.8 9.7 0.00 0.00 0.00 58 1015.5
20260507065508 6 97 3.2 8.0 0.00 0.00 0.00 58 1015.5
20260507065009 6 98 3.2 9.7 0.00 0.00 0.00 58 1015.5
20260507064508 6 59 4.8 9.7 0.00 0.00 0.00 58 1015.5
20260507064009 5 68 6.4 12.9 0.00 0.00 0.00 58 1015.5
20260507063508 5 59 4.8 9.7 0.00 0.00 0.00 59 1015.4
20260507063012 5 47 4.8 11.3 0.00 0.00 0.00 60 1015.3
20260507062508 5 63 4.8 11.3 0.00 0.00 0.00 60 1015.3
20260507061508 5 58 4.8 12.9 0.00 0.00 0.00 60 1015.3
20260507061009 5 13 8.0 16.1 0.00 0.00 0.00 61 1015.2
20260507060508 5 15 4.8 12.9 0.00 0.00 0.00 61 1015.2
20260507060012 5 41 3.2 9.7 0.00 0.00 0.00 61 1015.2
20260507054508 4 52 3.2 8.0 0.00 0.00 0.00 61 1015.0
20260507053508 4 59 3.2 4.8 0.00 0.00 0.00 61 1015.2
20260507053012 4 96 1.6 3.2 0.00 0.00 0.00 61 1015.2
20260507052508 4 317 3.2 3.2 0.00 0.00 0.00 61 1015.2
20260507052008 4 5 1.6 3.2 0.00 0.00 0.00 61 1015.1
20260507050508 4 335 1.6 3.2 0.00 0.00 0.00 60 1015.0
20260507050012 4 322 1.6 3.2 0.00 0.00 0.00 60 1014.9
20260507045509 4 6 1.6 3.2 0.00 0.00 0.00 60 1014.8
20260507045008 4 351 3.2 3.2 0.00 0.00 0.00 60 1014.9
20260507044508 4 332 1.6 3.2 0.00 0.00 0.00 60 1014.8
20260507044008 4 67 0.0 1.6 0.00 0.00 0.00 60 1014.7
20260507043508 4 76 0.0 1.6 0.00 0.00 0.00 60 1014.8
20260507043012 4 69 1.6 1.6 0.00 0.00 0.00 60 1014.9
20260507042508 4 348 0.0 1.6 0.00 0.00 0.00 60 1014.7
20260507042008 4 323 0.0 1.6 0.00 0.00 0.00 60 1014.5
20260507041008 4 96 1.6 1.6 0.00 0.00 0.00 60 1014.5
20260507040508 4 104 0.0 1.6 0.00 0.00 0.00 60 1014.3
20260507035509 5 40 1.6 3.2 0.00 0.00 0.00 60 1014.5
20260507035008 5 60 1.6 1.6 0.00 0.00 0.00 60 1014.4
20260507034508 5 75 0.0 1.6 0.00 0.00 0.00 60 1014.3
20260507034008 5 272 0.0 1.6 0.00 0.00 0.00 59 1014.2
20260507033508 5 91 1.6 3.2 0.00 0.00 0.00 59 1014.1
20260507033012 5 22 1.6 3.2 0.00 0.00 0.00 59 1014.2
20260507032008 5 359 1.6 4.8 0.00 0.00 0.00 59 1013.9
20260507031508 5 59 1.6 4.8 0.00 0.00 0.00 59 1014.1
20260507031008 5 323 0.0 1.6 0.00 0.00 0.00 59 1014.0
20260507030508 5 106 1.6 1.6 0.00 0.00 0.00 59 1013.9
20260507030012 5 316 1.6 3.2 0.00 0.00 0.00 59 1013.9
20260507025507 5 14 3.2 4.8 0.00 0.00 0.00 59 1013.9
20260507025008 5 9 4.8 11.3 0.00 0.00 0.00 59 1013.8
20260507024508 5 355 4.8 11.3 0.00 0.00 0.00 59 1013.8
20260507024008 5 17 8.0 12.9 0.00 0.00 0.00 59 1013.8
20260507023508 5 5 3.2 9.7 0.00 0.00 0.00 59 1013.8
20260507023011 5 3 3.2 9.7 0.00 0.00 0.00 59 1013.7
20260507022508 5 350 3.2 9.7 0.00 0.00 0.00 59 1013.7
20260507022008 5 358 3.2 9.7 0.00 0.00 0.00 59 1013.8
20260507021508 5 0 4.8 9.7 0.00 0.00 0.00 59 1013.5
20260507021008 5 0 4.8 11.3 0.00 0.00 0.00 59 1013.6
20260507020508 5 26 4.8 12.9 0.00 0.00 0.00 59 1013.5
20260507020011 5 347 3.2 11.3 0.00 0.00 0.00 58 1013.5
20260507015508 5 358 3.2 11.3 0.00 0.00 0.00 58 1013.6
20260507015008 5 16 6.4 11.3 0.00 0.00 0.00 58 1013.6
20260507014508 5 9 4.8 9.7 0.00 0.00 0.00 58 1013.6
20260507013508 6 1 3.2 4.8 0.00 0.00 0.00 58 1013.5
20260507012507 6 6 1.6 8.0 0.00 0.00 0.00 58 1013.4
20260507012007 6 333 4.8 8.0 0.00 0.00 0.00 58 1013.5
20260507011508 6 330 1.6 8.0 0.00 0.00 0.00 58 1013.3
20260507011008 6 325 4.8 9.7 0.00 0.00 0.00 58 1013.3
20260507010507 6 319 4.8 8.0 0.00 0.00 0.00 58 1013.3
20260507010012 6 336 3.2 9.7 0.00 0.00 0.00 58 1013.3
20260507005508 6 339 4.8 9.7 0.00 0.00 0.00 58 1013.2
20260507004508 6 148 1.6 3.2 0.00 0.00 0.00 57 1013.2
20260507004008 6 22 3.2 11.3 0.00 0.00 0.00 57 1013.2
20260507003508 6 1 3.2 11.3 0.00 0.00 0.00 57 1013.2
20260507003012 6 322 3.2 11.3 0.00 0.00 0.00 57 1013.2
20260507002507 6 346 3.2 9.7 0.00 0.00 0.00 57 1013.2
20260507002008 6 349 3.2 9.7 0.00 0.00 0.00 57 1013.1
20260507001508 6 350 3.2 8.0 0.00 0.00 0.00 57 1013.1
20260507001007 6 9 3.2 8.0 0.00 0.00 0.00 57 1013.2
20260507000508 6 29 3.2 8.0 0.00 0.00 0.00 57 1013.2
20260507000011 6 2 4.8 8.0 0.00 0.00 0.00 57 1013.2
20260506235508 6 19 3.2 8.0 0.00 0.00 0.00 56 1013.0
20260506235008 6 60 3.2 8.0 0.00 0.00 0.00 56 1013.1
20260506234508 6 44 4.8 11.3 0.00 0.00 0.00 56 1013.1
20260506234008 6 36 3.2 8.0 0.00 0.00 0.00 56 1013.1
20260506233508 6 43 3.2 8.0 0.00 0.00 0.00 56 1013.2
20260506233011 6 20 4.8 12.9 0.00 0.00 0.00 56 1013.1
20260506232508 6 35 6.4 12.9 0.00 0.00 0.00 56 1013.1
20260506232008 6 26 9.7 14.5 0.00 0.00 0.00 56 1013.0
20260506231507 6 46 9.7 14.5 0.00 0.00 0.00 56 1013.0
20260506230507 6 63 6.4 16.1 0.00 0.00 0.00 55 1012.9
20260506230011 6 44 6.4 14.5 0.00 0.00 0.00 55 1012.9
20260506225508 6 64 11.3 19.3 0.00 0.00 0.00 55 1012.8
20260506225007 6 73 6.4 12.9 0.00 0.00 0.00 55 1012.7
20260506224507 7 63 4.8 12.9 0.00 0.00 0.00 55 1012.7
20260506224008 7 56 4.8 14.5 0.00 0.00 0.00 55 1012.6
20260506223508 7 48 9.7 16.1 0.00 0.00 0.00 55 1012.7
20260506223012 7 66 4.8 14.5 0.00 0.00 0.00 54 1012.7
20260506222507 7 43 6.4 14.5 0.00 0.00 0.00 55 1012.6
20260506222007 7 24 6.4 20.9 0.00 0.00 0.00 55 1012.7
20260506221007 7 71 4.8 11.3 0.00 0.00 0.00 55 1012.6
20260506220507 7 35 8.0 19.3 0.00 0.00 0.00 55 1012.6
20260506220011 7 48 8.0 14.5 0.00 0.00 0.00 55 1012.5
20260506215507 7 21 8.0 19.3 0.00 0.00 0.00 55 1012.5
20260506215007 7 51 3.2 20.9 0.00 0.00 0.00 55 1012.6
20260506214508 7 44 4.8 20.9 0.00 0.00 0.00 55 1012.5
20260506213508 7 24 6.4 19.3 0.00 0.00 0.00 55 1012.6
20260506213011 7 30 6.4 16.1 0.00 0.00 0.00 55 1012.4
20260506212507 7 25 4.8 14.5 0.00 0.00 0.00 55 1012.2
20260506212007 7 15 4.8 16.1 0.00 0.00 0.00 56 1012.5
20260506211008 7 328 3.2 11.3 0.00 0.00 0.00 56 1012.3
20260506210507 8 37 4.8 9.7 0.00 0.00 0.00 56 1012.3
20260506210011 8 44 4.8 11.3 0.00 0.00 0.00 55 1012.1
20260506205507 8 33 4.8 9.7 0.00 0.00 0.00 55 1012.2
20260506205007 8 28 4.8 11.3 0.00 0.00 0.00 55 1012.2
20260506204507 8 26 4.8 11.3 0.00 0.00 0.00 55 1012.3
20260506204008 8 27 4.8 12.9 0.00 0.00 0.00 54 1012.2
20260506203011 8 27 6.4 12.9 0.00 0.00 0.00 54 1012.1
20260506202507 8 29 8.0 19.3 0.00 0.00 0.00 54 1012.1
20260506202007 8 20 4.8 14.5 0.00 0.00 0.00 54 1012.0
20260506201507 8 5 8.0 22.5 0.00 0.00 0.00 55 1012.0
20260506200507 8 30 8.0 14.5 0.00 0.00 0.00 55 1012.1
20260506200011 8 33 4.8 16.1 0.00 0.00 0.00 55 1012.0
20260506195508 8 14 9.7 19.3 0.00 0.00 0.00 55 1012.0
20260506195007 8 27 4.8 12.9 0.00 0.00 0.00 56 1011.9
20260506194008 8 354 6.4 16.1 0.00 0.00 0.00 58 1011.7
20260506192507 8 323 1.6 11.3 0.00 0.00 0.00 58 1011.6
20260506192007 8 324 8.0 16.1 0.00 0.00 0.00 58 1011.5
20260506191507 8 311 11.3 19.3 0.00 0.00 0.00 58 1011.4
20260506191007 8 309 14.5 19.3 0.00 0.00 0.00 58 1011.5
20260506190507 8 308 12.9 20.9 0.00 0.00 0.00 58 1011.5
20260506190011 8 308 11.3 16.1 0.00 0.00 0.00 58 1011.4
20260506185507 8 306 12.9 20.9 0.00 0.00 0.00 57 1011.3
20260506185007 8 308 12.9 19.3 0.00 0.00 0.00 57 1011.4
20260506184507 8 302 12.9 22.5 0.00 0.00 0.00 56 1011.4
20260506184007 8 303 16.1 22.5 0.00 0.00 0.00 56 1011.3
20260506183011 8 308 16.1 24.1 0.00 0.00 0.00 56 1011.2
20260506182507 8 300 17.7 24.1 0.00 0.00 0.00 56 1011.1
20260506182007 9 301 16.1 24.1 0.00 0.00 0.00 56 1011.1
20260506181507 9 303 17.7 27.4 0.00 0.00 0.00 56 1011.1
20260506180011 9 301 19.3 27.4 0.00 0.00 0.00 57 1011.0
20260506175507 9 310 19.3 27.4 0.00 0.00 0.00 57 1011.0
20260506175007 9 307 19.3 29.0 0.00 0.00 0.00 57 1011.0
20260506174507 9 311 17.7 29.0 0.00 0.00 0.00 57 1011.0
20260506174007 9 304 22.5 33.8 0.00 0.00 0.00 57 1010.9
20260506173507 9 303 19.3 27.4 0.00 0.00 0.00 57 1011.0
20260506173011 9 305 20.9 33.8 0.00 0.00 0.00 58 1011.0
20260506172507 9 307 20.9 33.8 0.00 0.00 0.00 58 1010.9
20260506172007 9 298 22.5 33.8 0.00 0.00 0.00 58 1010.8
20260506171507 9 305 25.7 40.2 0.00 0.00 0.00 58 1010.8
20260506171007 9 304 24.1 40.2 0.00 0.00 0.00 59 1010.8
20260506170507 9 294 27.4 45.1 0.00 0.00 0.00 59 1010.7
20260506170011 9 299 25.7 41.8 0.00 0.00 0.00 59 1010.8
20260506165507 9 302 27.4 40.2 0.00 0.00 0.00 59 1010.8
20260506164007 9 296 30.6 45.1 0.00 0.00 0.00 59 1010.9
20260506163507 9 298 29.0 38.6 0.00 0.00 0.00 59 1011.0
20260506163011 9 300 29.0 40.2 0.00 0.00 0.00 59 1011.0
20260506162507 9 299 29.0 40.2 0.00 0.00 0.00 59 1011.0
20260506161507 9 304 32.2 45.1 0.00 0.00 0.00 59 1011.0
20260506161007 9 294 32.2 46.7 0.00 0.00 0.00 59 1011.0
20260506160507 9 307 27.4 49.9 0.00 0.00 0.00 59 1011.0
20260506160010 9 304 32.2 48.3 0.00 0.00 0.00 59 1011.1
20260506155507 9 298 32.2 41.8 0.00 0.00 0.00 60 1010.9
20260506155007 10 301 35.4 41.8 0.00 0.00 0.00 60 1011.1
20260506154007 10 299 29.0 41.8 0.00 0.00 0.00 60 1011.0
20260506153507 10 298 32.2 46.7 0.00 0.00 0.00 60 1011.1
20260506153011 10 300 29.0 45.1 0.00 0.00 0.00 59 1011.0
20260506152507 10 302 29.0 40.2 0.00 0.00 0.00 61 1011.0
20260506152007 10 293 30.6 40.2 0.00 0.00 0.00 60 1010.9
20260506151507 10 303 29.0 45.1 0.00 0.00 0.00 61 1011.1
20260506151006 10 299 32.2 41.8 0.00 0.00 0.00 61 1011.0
20260506150506 10 300 27.4 37.0 0.00 0.00 0.00 62 1011.1
20260506150010 10 290 27.4 38.6 0.00 0.00 0.00 62 1011.0
20260506145506 10 283 24.1 37.0 0.00 0.00 0.00 63 1011.1
20260506144507 10 284 22.5 40.2 0.00 0.00 0.00 63 1011.2
20260506144007 10 284 25.7 45.1 0.00 0.00 0.00 63 1011.2
20260506143506 10 282 22.5 37.0 0.00 0.00 0.00 62 1011.2
20260506143011 10 287 27.4 37.0 0.00 0.00 0.00 62 1011.3
20260506142507 10 289 27.4 38.6 0.00 0.00 0.00 62 1011.3
20260506142007 10 288 25.7 40.2 0.00 0.00 0.00 62 1011.4
20260506141506 10 280 25.7 41.8 0.00 0.00 0.00 62 1011.3
20260506141007 10 293 32.2 41.8 0.00 0.00 0.00 62 1011.3
20260506140507 10 291 29.0 40.2 0.00 0.00 0.00 63 1011.4
20260506140010 10 284 22.5 37.0 0.00 0.00 0.00 63 1011.5